User: anonymous   Login
Location: Unspecified
(0.0000°N, 0.0000°E)
Time: 00:02:07
(UTC+00:00)
Language:

STARLINK-33871 - Orbit

View from above orbital plane
View from above orbital plane
View from above satellite
View from above satellite

Ground track
Ground track

The orbit is defined by the following mean orbital elements,

1 63994U          26145.66332450 +.00000000 +00000-0 +71089-3 0 00009
2 63994  42.9986 283.5798 0000782 267.7631  92.3131 15.27601144    02
Epoch (UTC): 25 May 2026 15:55:11
Eccentricity: 0.0000782
inclination: 42.9986°
perigee height: 482 km
apogee height: 484 km
right ascension of ascending node: 283.5798°
argument of perigee: 267.7631°
revolutions per day: 15.27601144
mean anomaly at epoch: 92.3131°

The dashed part of the orbit path shows where the satellite is in the earth's shadow,  

DLR